User: anonymous   Login
Location: Unspecified
(0.0000°N, 0.0000°E)
Time: 10:21:04
(UTC+00:00)
Language:

ATEX - Orbit

View from above orbital plane
View from above orbital plane
View from above satellite
View from above satellite

Ground track
Ground track

The orbit data is extracted from the following two-line orbital elements,

1 25489U 98055A   19107.91745272 +.00000087 +00000-0 +17466-4 0  9993
2 25489 084.9808 095.5770 0010228 025.0001 335.1694 14.48697725084197
Epoch (UTC): 17 April 2019 22:01:07
Eccentricity: 0.0010228
inclination: 84.9808°
perigee height: 722 km
apogee height: 737 km
right ascension of ascending node: 95.5770°
argument of perigee: 25.0001°
revolutions per day: 14.48697725
mean anomaly at epoch: 335.1694°
orbit number at epoch: 8419

The dashed part of the orbit path shows where the satellite is in the earth's shadow,  

DLR